| time (UTC) | temp C | wind direction | speed KPH | gust KPH | rain 1hr cm | rain 24hr cm | rain mn cm | humidity % | barometer mb |
| 20260507064722 | 6 | 200 | 9.7 | 16.1 | 0.00 | 0.00 | 0.00 | 67 | 1014.7 |
| 20260507062722 | 5 | 214 | 11.3 | 17.7 | 0.00 | 0.00 | 0.00 | 69 | 1014.7 |
| 20260507060722 | 5 | 217 | 14.5 | 20.9 | 0.00 | 0.00 | 0.00 | 70 | 1014.6 |
| 20260507054722 | 5 | 218 | 14.5 | 19.3 | 0.00 | 0.00 | 0.00 | 72 | 1014.5 |
| 20260507052721 | 4 | 207 | 11.3 | 17.7 | 0.00 | 0.00 | 0.00 | 79 | 1014.5 |
| 20260507050721 | 3 | 184 | 8.0 | 11.3 | 0.00 | 0.00 | 0.00 | 81 | 1014.4 |
| 20260507044721 | 2 | 179 | 6.4 | 11.3 | 0.00 | 0.00 | 0.00 | 85 | 1014.3 |
| 20260507042721 | 2 | 185 | 8.0 | 14.5 | 0.00 | 0.00 | 0.00 | 85 | 1014.3 |
| 20260507040722 | 1 | 184 | 9.7 | 16.1 | 0.00 | 0.00 | 0.00 | 87 | 1014.3 |
| 20260507034721 | 0 | 179 | 9.7 | 14.5 | 0.00 | 0.00 | 0.00 | 89 | 1014.0 |
| 20260507032721 | 0 | 176 | 9.7 | 14.5 | 0.00 | 0.00 | 0.00 | 90 | 1013.9 |
| 20260507030721 | 0 | 172 | 6.4 | 8.0 | 0.00 | 0.00 | 0.00 | 90 | 1013.7 |
| 20260507025050 | 0 | 174 | 6.4 | 9.7 | 0.00 | 0.00 | 0.00 | 91 | 1013.6 |
| 20260507022721 | -1 | 168 | 11.3 | 16.1 | 0.00 | 0.00 | 0.00 | 92 | 1013.6 |
| 20260507020721 | -1 | 166 | 11.3 | 14.5 | 0.00 | 0.00 | 0.00 | 93 | 1013.7 |
| 20260507014720 | -1 | 171 | 8.0 | 12.9 | 0.00 | 0.00 | 0.00 | 92 | 1013.6 |
| 20260507012721 | -1 | 162 | 11.3 | 14.5 | 0.00 | 0.00 | 0.00 | 94 | 1013.4 |
| 20260507010721 | -1 | 170 | 9.7 | 16.1 | 0.00 | 0.00 | 0.00 | 94 | 1013.5 |
| 20260507004721 | 0 | 168 | 9.7 | 14.5 | 0.00 | 0.00 | 0.00 | 94 | 1013.4 |
| 20260507002721 | 0 | 165 | 11.3 | 17.7 | 0.00 | 0.00 | 0.00 | 93 | 1013.3 |
| 20260507000721 | 0 | 169 | 12.9 | 16.1 | 0.00 | 0.00 | 0.00 | 92 | 1013.2 |
| 20260506234720 | 0 | 169 | 11.3 | 16.1 | 0.00 | 0.00 | 0.00 | 95 | 1013.1 |
| 20260506232721 | 0 | 161 | 11.3 | 14.5 | 0.00 | 0.00 | 0.00 | 95 | 1013.1 |
| 20260506230721 | 0 | 154 | 8.0 | 11.3 | 0.00 | 0.00 | 0.00 | 95 | 1013.0 |
| 20260506224720 | 0 | 146 | 9.7 | 11.3 | 0.00 | 0.00 | 0.00 | 96 | 1012.9 |
| 20260506222721 | 0 | 151 | 8.0 | 9.7 | 0.00 | 0.00 | 0.00 | 94 | 1012.9 |
| 20260506220720 | 0 | 163 | 8.0 | 11.3 | 0.00 | 0.00 | 0.00 | 92 | 1013.0 |
| 20260506214720 | 1 | 170 | 8.0 | 11.3 | 0.00 | 0.00 | 0.00 | 92 | 1012.9 |
| 20260506212720 | 1 | 163 | 8.0 | 11.3 | 0.00 | 0.00 | 0.00 | 92 | 1012.8 |
| 20260506210720 | 1 | 153 | 8.0 | 9.7 | 0.00 | 0.00 | 0.00 | 90 | 1012.7 |
| 20260506204720 | 1 | 167 | 6.4 | 9.7 | 0.00 | 0.00 | 0.00 | 90 | 1012.8 |
| 20260506200720 | 1 | 132 | 4.8 | 6.4 | 0.00 | 0.00 | 0.00 | 90 | 1012.6 |
| 20260506194720 | 1 | 167 | 6.4 | 8.0 | 0.00 | 0.00 | 0.00 | 90 | 1012.5 |
| 20260506192719 | 2 | 179 | 4.8 | 6.4 | 0.00 | 0.00 | 0.00 | 84 | 1012.5 |
| 20260506190720 | 3 | 223 | 3.2 | 6.4 | 0.00 | 0.00 | 0.00 | 81 | 1012.4 |
| 20260506184719 | 3 | 266 | 6.4 | 9.7 | 0.00 | 0.00 | 0.00 | 80 | 1012.3 |
| 20260506182720 | 3 | 257 | 6.4 | 9.7 | 0.00 | 0.00 | 0.00 | 77 | 1012.0 |
| 20260506174719 | 4 | 294 | 9.7 | 14.5 | 0.00 | 0.00 | 0.00 | 82 | 1011.7 |
| 20260506172719 | 4 | 286 | 12.9 | 17.7 | 0.00 | 0.00 | 0.00 | 81 | 1011.5 |
| 20260506170719 | 4 | 285 | 14.5 | 19.3 | 0.00 | 0.00 | 0.00 | 79 | 1011.3 |
| 20260506164719 | 4 | 287 | 16.1 | 24.1 | 0.00 | 0.00 | 0.00 | 79 | 1011.1 |
| 20260506162719 | 5 | 285 | 16.1 | 22.5 | 0.00 | 0.00 | 0.00 | 76 | 1011.0 |
| 20260506160719 | 5 | 283 | 17.7 | 25.7 | 0.00 | 0.00 | 0.00 | 73 | 1010.8 |
| 20260506154719 | 5 | 263 | 14.5 | 25.7 | 0.00 | 0.00 | 0.00 | 74 | 1010.7 |
| 20260506152719 | 5 | 279 | 17.7 | 24.1 | 0.00 | 0.00 | 0.00 | 73 | 1010.6 |
| 20260506150719 | 5 | 280 | 19.3 | 24.1 | 0.00 | 0.00 | 0.00 | 74 | 1010.4 |
| 20260506144719 | 6 | 291 | 19.3 | 30.6 | 0.00 | 0.00 | 0.00 | 68 | 1010.1 |
| 20260506142718 | 6 | 322 | 16.1 | 30.6 | 0.00 | 0.00 | 0.00 | 63 | 1010.0 |
| 20260506140718 | 6 | 319 | 17.7 | 25.7 | 0.00 | 0.00 | 0.00 | 66 | 1009.9 |
| 20260506134718 | 5 | 311 | 19.3 | 24.1 | 0.00 | 0.00 | 0.00 | 66 | 1009.7 |
| 20260506132719 | 6 | 296 | 17.7 | 24.1 | 0.00 | 0.00 | 0.00 | 70 | 1009.4 |
| 20260506130718 | 5 | 303 | 16.1 | 22.5 | 0.00 | 0.00 | 0.00 | 76 | 1009.2 |
| 20260506124718 | 5 | 329 | 16.1 | 24.1 | 0.00 | 0.00 | 0.00 | 77 | 1009.0 |
| 20260506122718 | 5 | 331 | 14.5 | 19.3 | 0.00 | 0.00 | 0.00 | 78 | 1008.7 |
| 20260506120718 | 5 | 332 | 14.5 | 20.9 | 0.00 | 0.00 | 0.00 | 81 | 1008.6 |
| 20260506114718 | 4 | 313 | 12.9 | 20.9 | 0.00 | 0.00 | 0.00 | 84 | 1008.1 |
| 20260506112719 | 4 | 323 | 12.9 | 17.7 | 0.00 | 0.00 | 0.00 | 86 | 1007.9 |
| 20260506110718 | 4 | 320 | 12.9 | 17.7 | 0.00 | 0.00 | 0.00 | 86 | 1007.7 |
| 20260506104718 | 3 | 283 | 14.5 | 20.9 | 0.00 | 0.00 | 0.00 | 91 | 1007.4 |
| 20260506102718 | 3 | 292 | 14.5 | 20.9 | 0.00 | 0.00 | 0.00 | 90 | 1007.1 |
| 20260506100718 | 4 | 288 | 9.7 | 19.3 | 0.00 | 0.00 | 0.00 | 91 | 1006.8 |
| 20260506094718 | 3 | 285 | 12.9 | 22.5 | 0.00 | 0.00 | 0.00 | 91 | 1006.5 |
| 20260506092718 | 3 | 277 | 11.3 | 17.7 | 0.00 | 0.00 | 0.00 | 93 | 1006.2 |
| 20260506090718 | 2 | 285 | 12.9 | 17.7 | 0.00 | 0.00 | 0.00 | 93 | 1006.0 |
| 20260506084718 | 2 | 279 | 11.3 | 17.7 | 0.00 | 0.00 | 0.00 | 95 | 1005.8 |
| 20260506082718 | 2 | 284 | 11.3 | 17.7 | 0.00 | 0.00 | 0.00 | 94 | 1005.5 |
| 20260506080718 | 2 | 278 | 9.7 | 16.1 | 0.00 | 0.00 | 0.00 | 93 | 1005.2 |
| 20260506072718 | 2 | 264 | 11.3 | 17.7 | 0.00 | 0.00 | 0.00 | 91 | 1004.5 |
| 20260506070718 | 2 | 267 | 12.9 | 19.3 | 0.00 | 0.00 | 0.00 | 91 | 1004.2 |